Weather reports worldwide

Advertisment
Aviemore, United Kingdom (3063): temperature & dewpoint: 17.03.2019 09:00:00 - 23.03.2019 09:00:00 (GMT)Aviemore, United Kingdom (3063): temperature -20cm & temperature -100cm: 17.03.2019 09:00:00 - 23.03.2019 09:00:00 (GMT)Aviemore, United Kingdom (3063): wind speed & gusts: 17.03.2019 09:00:00 - 23.03.2019 09:00:00 (GMT)Aviemore, United Kingdom (3063): wind direction: 17.03.2019 09:00:00 - 23.03.2019 09:00:00 (GMT)Aviemore, United Kingdom (3063): reduced air pressure: 17.03.2019 09:00:00 - 23.03.2019 09:00:00 (GMT)Aviemore, United Kingdom (3063): visibility: 17.03.2019 09:00:00 - 23.03.2019 09:00:00 (GMT)Aviemore, United Kingdom (3063): sunshine duration: 17.03.2019 09:00:00 - 23.03.2019 09:00:00 (GMT)Aviemore, United Kingdom (3063): precipitation: 17.03.2019 09:00:00 - 23.03.2019 09:00:00 (GMT)
Date & Time tt [°C] td [°C] tt -20cm [°C] tt -100cm [°C] ff [km/h] ff [kn] fx [km/h] fx [kn] dd ppp [hPa] vv [km] sd [min] rr [mm]
23.03.2019 09:00:00 5,3 0,2 5,5 4,9 9 5 - - SSW 1026,7 23 60 0,0
23.03.2019 08:00:00 3,6 -0,9 - - 11 6 - - SW 1025,9 22 30 0,0
23.03.2019 07:00:00 1,9 -0,7 - - 13 7 - - SW 1025,0 30 0 0,0
23.03.2019 06:00:00 1,8 -1,0 - - 13 7 - - SW 1024,3 16 0 0,0
23.03.2019 05:00:00 1,1 -0,8 - - 9 5 - - SW 1023,8 35 0 0,0
23.03.2019 04:00:00 1,5 -1,4 - - 11 6 - - SW 1023,3 16 0 0,0
23.03.2019 03:00:00 1,5 -0,8 - - 11 6 - - SW 1022,9 17 0 0,0
23.03.2019 02:00:00 1,4 -0,9 - - 9 5 - - SSW 1022,5 19 0 0,0
23.03.2019 01:00:00 1,6 -0,2 - - 9 5 - - SSW 1022,0 20 0 0,0
23.03.2019 00:00:00 1,8 -0,2 - - 9 5 - - SW 1021,3 28 - 0,0
22.03.2019 23:00:00 2,6 -1,4 - - 16 9 - - SW 1020,3 22 0 0,0
22.03.2019 22:00:00 2,4 0,0 - - 15 8 - - SSW 1019,3 23 0 0,2
22.03.2019 21:00:00 3,2 0,1 - - 16 9 50 27 SW 1018,9 3,7 0 0,2
22.03.2019 20:00:00 3,2 1,4 - - 11 6 - - SW 1018,1 7 0 0,2
22.03.2019 19:00:00 4,1 0,8 - - 16 9 - - SW 1016,6 27 0 0,0
22.03.2019 18:00:00 6,0 -0,8 - - 16 9 59 32 SSW 1014,6 18 0 0,0
22.03.2019 17:00:00 6,0 0,6 - - 16 9 48 26 SW 1014,6 23 18 0,0
22.03.2019 16:00:00 8,1 2,5 - - 18 10 65 35 SW 1013,8 19 24 0,2
22.03.2019 15:00:00 8,7 4,1 - - 16 9 - - SW 1013,2 29 30 0,0
22.03.2019 14:00:00 8,2 5,0 - - 13 7 - - SW 1013,1 12 6 0,0
22.03.2019 13:00:00 9,1 6,3 - - 13 7 - - SW 1012,3 40 0 0,6
22.03.2019 12:00:00 9,6 7,0 - - 18 10 48 26 SW 1011,0 19 0 0,6
22.03.2019 11:00:00 9,5 7,4 - - 21 11 52 28 SW 1011,0 6 0 1,4
22.03.2019 10:00:00 9,5 7,0 - - 22 12 52 28 SSW 1010,7 8 0 0,2
22.03.2019 09:00:00 10,1 5,8 5,7 4,7 24 13 54 29 SSW 1011,4 50 0 0,0
22.03.2019 08:00:00 9,5 5,1 - - 21 11 46 25 SSW 1012,3 50 0 0,0
22.03.2019 07:00:00 9,6 4,9 - - 16 9 50 27 SSW 1013,5 45 0 0,0
22.03.2019 06:00:00 9,4 5,3 - - 22 12 61 33 SSW 1014,0 50 0 0,0
22.03.2019 05:00:00 9,2 5,2 - - 21 11 46 25 SSW 1014,5 50 0 0,0
22.03.2019 04:00:00 9,1 5,4 - - 16 9 55 30 SSW 1015,8 25 0 0,0
22.03.2019 03:00:00 9,0 5,3 - - 18 10 50 27 SSW 1017,0 18 0 0,0
22.03.2019 02:00:00 9,1 5,4 - - 15 8 46 25 SSW 1018,3 14 0 0,0
22.03.2019 01:00:00 9,5 5,5 - - 22 12 46 25 SSW 1019,8 16 0 0,0
22.03.2019 00:00:00 9,9 6,5 - - 18 10 - - SSW 1020,1 40 - 0,0
21.03.2019 23:00:00 10,6 7,3 - - 16 9 - - SW 1021,6 50 0 0,0
21.03.2019 22:00:00 10,6 7,3 - - 16 9 - - SW 1022,5 50 0 0,0
21.03.2019 21:00:00 10,5 7,3 - - 16 9 - - SSW 1024,0 50 0 0,0
21.03.2019 20:00:00 10,0 6,4 - - 9 5 - - SSW 1024,5 50 0 0,0
21.03.2019 19:00:00 10,2 5,5 - - 13 7 - - SW 1025,1 40 0 0,0
21.03.2019 18:00:00 9,6 4,4 - - 5 3 - - SW 1025,7 50 0 0,0
21.03.2019 17:00:00 11,4 5,3 - - 8 4 - - SSW 1026,6 35 0 0,0
21.03.2019 16:00:00 12,0 5,4 - - 8 4 - - SW 1027,3 40 0 0,0
21.03.2019 15:00:00 12,7 5,4 - - 9 5 - - SW 1027,1 45 36 0,0
21.03.2019 14:00:00 13,0 5,5 - - 11 6 - - SW 1026,7 40 18 0,0
21.03.2019 13:00:00 12,5 6,0 - - 13 7 - - S 1026,8 45 36 0,0
21.03.2019 12:00:00 12,6 6,6 - - 9 5 - - SW 1026,9 50 42 0,0
21.03.2019 11:00:00 11,6 7,5 - - 8 4 - - SW 1026,8 50 30 0,0
21.03.2019 10:00:00 9,5 7,1 - - 9 5 - - SW 1026,4 50 0 0,2
21.03.2019 09:00:00 9,4 7,9 5,0 4,5 11 6 - - W 1025,7 4,2 0 0,2
21.03.2019 08:00:00 9,4 8,4 - - 5 3 - - SW 1024,5 50 0 0,0
21.03.2019 07:00:00 9,2 8,5 - - 8 4 - - SSW 1023,3 22 0 0,0
21.03.2019 06:00:00 9,0 8,4 - - 11 6 - - SW 1022,1 5 0 0,2
21.03.2019 05:00:00 9,0 8,1 - - 13 7 - - SSW 1021,0 6 0 0,2
21.03.2019 04:00:00 9,2 8,2 - - 16 9 - - SSW 1020,5 8 0 0,0
21.03.2019 03:00:00 9,3 8,2 - - 16 9 - - SW 1020,2 5 0 0,2
21.03.2019 02:00:00 9,1 8,1 - - 15 8 - - SSW 1020,2 12 0 0,0
21.03.2019 01:00:00 9,4 8,3 - - 16 9 - - SW 1020,2 6 0 0,0
21.03.2019 00:00:00 9,5 8,2 - - 16 9 - - SW 1020,0 7 - 0,0
20.03.2019 23:00:00 10,0 8,0 - - 16 9 - - SW 1019,8 12 0 0,0
20.03.2019 22:00:00 10,4 7,2 - - 16 9 - - SSW 1019,1 15 0 0,0
20.03.2019 21:00:00 10,4 7,6 - - 15 8 48 26 SW 1019,2 25 0 0,0
20.03.2019 20:00:00 11,2 9,0 - - 22 12 48 26 SW 1018,7 29 0 0,4
20.03.2019 19:00:00 10,6 9,2 - - 16 9 - - SW 1018,9 3,9 0 0,2
20.03.2019 18:00:00 11,5 8,2 - - 13 7 48 26 SSW 1019,0 27 0 0,0
20.03.2019 17:00:00 11,2 8,4 - - 22 12 46 25 SW 1019,7 9 0 0,0
20.03.2019 16:00:00 12,4 8,0 - - 13 7 46 25 SW 1020,1 50 0 0,0
20.03.2019 15:00:00 12,6 6,9 - - 21 11 54 29 SW 1020,4 50 42 0,0
20.03.2019 14:00:00 12,7 7,6 - - 21 11 55 30 SW 1021,1 45 6 0,0
20.03.2019 13:00:00 11,6 6,9 - - 21 11 48 26 SW 1021,9 23 42 0,0
20.03.2019 12:00:00 12,2 7,3 - - 16 9 - - SW 1022,0 30 18 0,0
20.03.2019 11:00:00 10,6 6,1 - - 13 7 - - SSW 1022,6 45 12 0,0
20.03.2019 10:00:00 8,8 5,4 - - 9 5 - - S 1023,7 25 0 0,0
20.03.2019 09:00:00 8,3 5,6 4,2 4,5 8 4 - - SSW 1023,9 29 0 0,0
20.03.2019 08:00:00 8,0 5,4 - - 9 5 - - S 1023,4 50 6 0,0
20.03.2019 07:00:00 7,8 5,1 - - 5 3 - - SSW 1023,1 50 0 0,0
20.03.2019 06:00:00 7,6 6,0 - - 8 4 - - SW 1022,5 50 0 0,0
20.03.2019 05:00:00 7,5 6,4 - - 8 4 - - SW 1021,8 45 0 0,0
20.03.2019 04:00:00 7,3 6,4 - - 5 3 - - SSW 1022,1 8 0 0,0
20.03.2019 03:00:00 7,2 5,8 - - 8 4 - - SSW 1021,7 13 0 0,0
20.03.2019 02:00:00 7,1 4,6 - - 9 5 - - SW 1021,4 16 0 0,0
20.03.2019 01:00:00 7,7 4,1 - - 11 6 - - SSW 1021,4 20 0 0,0
20.03.2019 00:00:00 6,3 3,1 - - 5 3 - - SW 1021,7 18 - 0,0
19.03.2019 23:00:00 6,7 3,4 - - 8 4 - - SSW 1021,3 17 0 0,0
19.03.2019 22:00:00 7,6 4,2 - - 9 5 - - SSW 1020,5 30 0 0,0
19.03.2019 21:00:00 8,3 6,0 - - 13 7 - - SW 1019,4 50 0 0,0
19.03.2019 20:00:00 8,1 6,1 - - 11 6 - - SSW 1019,0 50 0 0,0
19.03.2019 19:00:00 8,8 6,7 - - 8 4 - - SW 1018,5 50 0 0,0
19.03.2019 18:00:00 9,6 6,5 - - 13 7 - - SW 1017,7 50 0 0,0
19.03.2019 17:00:00 10,4 6,2 - - 22 12 - - SW 1016,7 50 12 0,0
19.03.2019 16:00:00 11,0 7,0 - - 18 10 - - SW 1016,8 40 6 0,0
19.03.2019 15:00:00 10,8 7,4 - - 16 9 - - SSW 1016,4 45 0 0,0
19.03.2019 14:00:00 9,4 6,7 - - 18 10 - - SSW 1016,2 18 0 0,0
19.03.2019 13:00:00 9,4 5,7 - - 21 11 - - SW 1016,5 35 18 0,0
19.03.2019 12:00:00 10,0 5,8 - - 21 11 50 27 SW 1016,2 35 30 0,0
19.03.2019 11:00:00 10,3 5,9 - - 18 10 - - SW 1016,3 35 24 0,0
19.03.2019 10:00:00 8,6 4,8 - - 16 9 - - SSW 1017,0 28 0 0,0
19.03.2019 09:00:00 7,5 4,3 3,7 4,5 16 9 - - SSW 1017,5 45 0 0,0
19.03.2019 08:00:00 6,7 4,3 - - 15 8 - - SSW 1017,0 50 0 0,0
19.03.2019 07:00:00 6,2 4,1 - - 5 3 - - SSW 1018,0 45 0 0,0
19.03.2019 06:00:00 5,9 3,8 - - 8 4 - - SW 1018,0 50 0 0,0
19.03.2019 05:00:00 5,7 3,6 - - 9 5 - - SW 1018,5 50 0 0,0
19.03.2019 04:00:00 5,4 3,4 - - 9 5 - - SSW 1018,9 50 0 0,0
19.03.2019 03:00:00 5,2 3,3 - - 11 6 - - SSW 1018,8 50 0 0,0
19.03.2019 02:00:00 4,2 3,4 - - 5 3 - - SW 1019,8 50 0 0,0
19.03.2019 01:00:00 3,5 2,6 - - 2 1 - - ESE 1019,9 50 0 0,0
19.03.2019 00:00:00 4,4 3,5 - - 8 4 - - SSW 1019,8 40 - 0,0
18.03.2019 23:00:00 3,7 2,6 - - 5 3 - - SW 1019,8 50 0 0,0
18.03.2019 22:00:00 4,4 3,2 - - 8 4 - - SW 1019,5 50 0 0,0
18.03.2019 21:00:00 4,8 3,3 - - 8 4 - - SW 1019,2 50 0 0,0
18.03.2019 20:00:00 4,5 3,4 - - 5 3 - - SSW 1019,0 50 0 0,0
18.03.2019 19:00:00 4,7 3,6 - - 8 4 - - SW 1018,5 9 0 0,0
18.03.2019 18:00:00 6,7 2,3 - - 5 3 - - S 1017,7 50 0 0,0
18.03.2019 17:00:00 7,1 2,5 - - 9 5 - - SSW 1016,7 45 0 0,0
18.03.2019 16:00:00 7,2 2,0 - - 8 4 - - SW 1016,3 50 42 0,0
18.03.2019 15:00:00 7,8 2,4 - - 11 6 - - SSW 1016,0 45 48 0,0
18.03.2019 14:00:00 7,1 2,2 - - 11 6 - - SSW 1015,8 30 42 0,0
18.03.2019 13:00:00 7,8 2,3 - - 9 5 - - SSW 1015,5 50 54 0,0
18.03.2019 12:00:00 7,0 1,9 - - 11 6 - - SSW 1015,5 45 48 0,0
18.03.2019 11:00:00 5,0 0,6 - - 11 6 - - S 1015,7 40 6 0,0
18.03.2019 10:00:00 3,3 0,4 - - 8 4 - - SSE 1015,3 23 12 0,2
18.03.2019 09:00:00 2,0 -0,5 3,4 4,7 4 2 - - SSW 1015,1 29 42 0,0
18.03.2019 08:00:00 -1,8 -2,9 - - 2 1 - - WSW 1015,0 23 0 0,0
18.03.2019 07:00:00 -2,4 -3,3 - - 4 2 - - WSW 1014,6 21 0 0,0
18.03.2019 06:00:00 -2,2 -3,2 - - 2 1 - - W 1014,2 21 0 0,0
18.03.2019 05:00:00 -2,2 -3,4 - - 2 1 - - ESE 1014,0 23 0 0,0
18.03.2019 04:00:00 -1,7 -3,5 - - 2 1 - - W 1014,1 23 0 0,0
18.03.2019 03:00:00 -0,4 -3,3 - - 8 4 - - W 1013,8 30 0 0,0
18.03.2019 02:00:00 -1,5 -3,6 - - 2 1 - - WSW 1013,5 26 0 0,0
18.03.2019 01:00:00 -0,9 -2,7 - - 2 1 - - WSW 1013,1 30 0 0,0
18.03.2019 00:00:00 0,5 -2,6 - - 4 2 - - W 1012,6 30 - 0,0
17.03.2019 23:00:00 0,3 -1,8 - - 4 2 - - SSW 1012,0 18 0 0,0
17.03.2019 22:00:00 1,9 -1,6 - - 4 2 - - NW 1011,0 21 0 0,0
17.03.2019 21:00:00 1,5 -0,9 - - 4 2 - - NW 1010,6 24 0 0,0
17.03.2019 20:00:00 1,2 -0,8 - - 2 1 - - NNW 1010,0 17 0 0,2
17.03.2019 19:00:00 2,6 -0,3 - - 4 2 - - N 1008,6 14 0 0,0
17.03.2019 18:00:00 2,2 0,3 - - 2 1 - - WSW 1007,2 20 0 0,0
17.03.2019 17:00:00 3,5 0,1 - - 9 5 - - N 1005,6 20 6 0,2
17.03.2019 16:00:00 5,3 0,2 - - 5 3 - - N 1003,9 29 48 0,0
17.03.2019 15:00:00 4,1 0,6 - - 11 6 - - N 1003,3 15 30 0,2
17.03.2019 14:00:00 3,4 1,2 - - 9 5 - - NNW 1001,7 25 42 0,2
17.03.2019 13:00:00 2,9 0,7 - - 9 5 - - NNW 999,9 28 36 1,0
17.03.2019 12:00:00 3,5 1,9 - - 8 4 - - N 997,9 23 6 1,2
17.03.2019 11:00:00 2,8 1,2 - - 8 4 - - NNW 996,4 9 6 1,2
17.03.2019 10:00:00 3,4 0,5 - - 13 7 - - WNW 994,7 15 0 1,0
17.03.2019 09:00:00 2,4 -0,3 3,7 4,7 5 3 - - WNW 993,4 50 0 0,0

tt = temperature
td = dewpoint
tt -20cm = temperature -20cm
tt -100cm = temperature -100cm
ff = wind speed
fx = gusts
dd = wind direction
ppp = reduced air pressure
vv = visibility
sd = sunshine duration
rr = precipitation

Next stations